カタログに戻る

STARLINK-34418

運用中通信VLEO
NORAD 64461·PAYLOAD·🇺🇸 United States

打ち上げ Jun 18, 2025 から Cape Canaveral Space Force Station

Loading…

次のパス (今後24時間)

TLE

最新Source: CelesTrak SupGP

元期: Sep 15, 2026, 03:35 UTC

1 64461C 25130Z   26258.14979167 -.00002180  00000+0 -64406-4 0  2583
2 64461  53.1570 286.4556 0001212  95.1463 106.6847 15.34385310    10

AllMySatでSTARLINK-34418をリアルタイム追跡

Download on the App Store